BTK6593 WIII-WIBB

Flight info

Callsign BTK6593
Flight time N/A
Altitude 30000
Route GOMEL T10 OVSET
Aircraft A20N/M-SDE2E3FGHIRWXY/LB1

Departure

Time N/A
Airport Soekarno-Hatta International Airport (WIII)

Arrival

Time 2026-04-24 15:43
Airport Sultan Syarif Kasim II International Airport / Roesmin Nurjadin AFB (WIBB)
Time Latitude Longitude Altitude Speed Heading
2026-04-24 14:47 -4.32152 105.21671 29900 ft 453 kts 324°
2026-04-24 14:48 -4.27998 105.18725 29898 ft 453 kts 324°
2026-04-24 14:48 -4.22790 105.15031 29893 ft 466 kts 324°
2026-04-24 14:49 -4.17397 105.11207 29895 ft 483 kts 324°
2026-04-24 14:49 -4.12076 105.07436 29898 ft 497 kts 324°
2026-04-24 14:50 -4.06733 105.02915 29895 ft 507 kts 317°
2026-04-24 14:50 -4.01550 104.98126 29895 ft 507 kts 316°
2026-04-24 14:51 -3.96438 104.93314 29896 ft 507 kts 316°
2026-04-24 14:51 -3.91282 104.88466 29896 ft 507 kts 316°
2026-04-24 14:52 -3.86131 104.83639 29900 ft 507 kts 316°
2026-04-24 14:52 -3.81014 104.78852 29901 ft 506 kts 316°
2026-04-24 14:53 -3.75861 104.74035 29901 ft 506 kts 316°
2026-04-24 14:53 -3.70711 104.69220 29902 ft 506 kts 316°
2026-04-24 14:54 -3.65561 104.64405 29898 ft 506 kts 316°
2026-04-24 14:54 -3.60411 104.59591 29897 ft 506 kts 316°
2026-04-24 14:55 -3.55289 104.54804 29897 ft 506 kts 316°
2026-04-24 14:55 -3.50148 104.50000 29898 ft 506 kts 316°
2026-04-24 14:56 -3.44995 104.45185 29899 ft 505 kts 316°
2026-04-24 14:56 -3.39854 104.40383 29898 ft 506 kts 316°
2026-04-24 14:57 -3.34706 104.35575 29901 ft 506 kts 316°
2026-04-24 14:57 -3.29554 104.30763 29898 ft 506 kts 316°
2026-04-24 14:58 -3.24434 104.25983 29896 ft 506 kts 316°
2026-04-24 14:58 -3.19291 104.21181 29901 ft 506 kts 316°
2026-04-24 14:59 -3.14169 104.16400 29897 ft 506 kts 316°
2026-04-24 14:59 -3.09016 104.11591 29897 ft 506 kts 316°
2026-04-24 15:00 -3.03865 104.06784 29900 ft 505 kts 316°
2026-04-24 15:00 -2.98727 104.01989 29900 ft 505 kts 317°
2026-04-24 15:01 -2.93587 103.97194 29902 ft 504 kts 317°
2026-04-24 15:01 -2.88486 103.92436 29903 ft 504 kts 317°
2026-04-24 15:02 -2.83357 103.87652 29898 ft 504 kts 317°
2026-04-24 15:02 -2.78228 103.82869 29901 ft 503 kts 317°
2026-04-24 15:03 -2.73100 103.78087 29900 ft 503 kts 317°
2026-04-24 15:03 -2.68014 103.73345 29897 ft 503 kts 317°
2026-04-24 15:04 -2.62896 103.68574 29901 ft 503 kts 317°
2026-04-24 15:04 -2.57780 103.63805 29901 ft 503 kts 317°
2026-04-24 15:05 -2.52662 103.59035 29903 ft 503 kts 317°
2026-04-24 15:05 -2.47544 103.54265 29905 ft 503 kts 317°
2026-04-24 15:06 -2.42425 103.49495 29905 ft 502 kts 317°
2026-04-24 15:06 -2.37309 103.44729 29902 ft 502 kts 317°
2026-04-24 15:07 -2.32229 103.39995 29901 ft 502 kts 317°
2026-04-24 15:07 -2.27124 103.35225 29905 ft 502 kts 317°
2026-04-24 15:08 -2.22016 103.30452 29904 ft 502 kts 317°
2026-04-24 15:08 -2.16904 103.25678 29904 ft 502 kts 317°
2026-04-24 15:09 -2.11804 103.20914 29907 ft 502 kts 317°
2026-04-24 15:09 -2.06732 103.16178 29902 ft 502 kts 317°
2026-04-24 15:10 -2.01623 103.11407 29908 ft 502 kts 317°
2026-04-24 15:10 -1.96507 103.06630 29909 ft 502 kts 317°
2026-04-24 15:11 -1.91387 103.01850 29908 ft 502 kts 317°
2026-04-24 15:11 -1.86307 102.97107 29912 ft 502 kts 317°
2026-04-24 15:12 -1.81185 102.92326 29913 ft 503 kts 317°
2026-04-24 15:12 -1.73550 102.85200 29916 ft 502 kts 317°
2026-04-24 15:13 -1.68445 102.80435 29916 ft 502 kts 317°
2026-04-24 15:13 -1.63347 102.75678 29917 ft 502 kts 317°
2026-04-24 15:14 -1.58169 102.70993 29917 ft 501 kts 323°
2026-04-24 15:14 -1.55203 102.69156 29917 ft 499 kts 335°
2026-04-24 15:14 -1.51970 102.67921 29917 ft 498 kts 343°
2026-04-24 15:15 -1.45361 102.65960 29921 ft 499 kts 345°
2026-04-24 15:15 -1.38698 102.64022 29916 ft 499 kts 344°
2026-04-24 15:16 -1.32050 102.62072 29923 ft 499 kts 344°
2026-04-24 15:16 -1.25377 102.60108 29922 ft 500 kts 344°
2026-04-24 15:17 -1.18704 102.58143 29916 ft 500 kts 344°
2026-04-24 15:17 -1.12078 102.56190 29917 ft 500 kts 344°
2026-04-24 15:18 -1.05399 102.54222 29919 ft 500 kts 344°
2026-04-24 15:18 -0.98720 102.52254 29919 ft 500 kts 344°
2026-04-24 15:19 -0.92038 102.50285 29910 ft 500 kts 344°
2026-04-24 15:19 -0.85362 102.48318 29904 ft 500 kts 344°
2026-04-24 15:20 -0.78675 102.46348 29904 ft 501 kts 344°
2026-04-24 15:20 -0.71994 102.44380 29899 ft 500 kts 344°
2026-04-24 15:21 -0.65305 102.42410 29893 ft 500 kts 344°
2026-04-24 15:21 -0.58637 102.40406 29892 ft 500 kts 341°
2026-04-24 15:22 -0.55547 102.38907 29887 ft 501 kts 327°
2026-04-24 15:22 -0.52836 102.36718 29891 ft 501 kts 317°
2026-04-24 15:23 -0.45333 102.29419 29884 ft 502 kts 316°
2026-04-24 15:23 -0.37831 102.22106 29886 ft 501 kts 316°
2026-04-24 15:24 -0.30402 102.14892 27807 ft 502 kts 316°
2026-04-24 15:25 -0.26214 102.10834 26643 ft 507 kts 316°
2026-04-24 15:25 -0.20305 102.05116 25260 ft 496 kts 316°
2026-04-24 15:26 -0.13314 101.98348 23466 ft 448 kts 317°
2026-04-24 15:27 -0.06687 101.91934 20963 ft 444 kts 317°
2026-04-24 15:27 -0.00184 101.85629 19602 ft 408 kts 317°
2026-04-24 15:28 0.07445 101.78235 17200 ft 369 kts 317°
2026-04-24 15:29 0.11432 101.75145 15729 ft 360 kts 328°
2026-04-24 15:30 0.17766 101.71102 14175 ft 354 kts 329°
2026-04-24 15:31 0.25194 101.66354 12486 ft 340 kts 328°
2026-04-24 15:32 0.33591 101.60988 10262 ft 310 kts 328°
2026-04-24 15:33 0.41127 101.57699 9226 ft 289 kts 359°
2026-04-24 15:33 0.46937 101.57583 7970 ft 274 kts
2026-04-24 15:34 0.50720 101.57514 7260 ft 270 kts
2026-04-24 15:35 0.56313 101.57320 6191 ft 266 kts 356°
2026-04-24 15:35 0.59325 101.56990 5752 ft 253 kts 355°
2026-04-24 15:35 0.61627 101.56724 5220 ft 251 kts 355°
2026-04-24 15:36 0.62767 101.56592 4994 ft 247 kts 355°
2026-04-24 15:36 0.66437 101.55246 4211 ft 243 kts 316°
2026-04-24 15:36 0.67096 101.54377 4095 ft 234 kts 299°
2026-04-24 15:37 0.67614 101.52877 3745 ft 227 kts 281°
2026-04-24 15:37 0.67837 101.51337 3381 ft 221 kts 276°
2026-04-24 15:37 0.68002 101.49822 3097 ft 217 kts 275°
2026-04-24 15:37 0.68004 101.48330 2806 ft 215 kts 261°
2026-04-24 15:38 0.67522 101.46932 2468 ft 213 kts 238°
2026-04-24 15:38 0.66559 101.45834 1984 ft 210 kts 214°
2026-04-24 15:38 0.65267 101.45231 1736 ft 204 kts 192°
2026-04-24 15:38 0.63870 101.45015 1693 ft 203 kts 184°
2026-04-24 15:39 0.62465 101.44913 1684 ft 199 kts 181°
2026-04-24 15:39 0.61194 101.44868 1682 ft 172 kts 180°
2026-04-24 15:39 0.60083 101.44839 1703 ft 150 kts 180°
2026-04-24 15:39 0.59073 101.44812 1723 ft 139 kts 180°
2026-04-24 15:40 0.58128 101.44788 1703 ft 134 kts 180°
2026-04-24 15:40 0.57192 101.44765 1697 ft 135 kts 179°
2026-04-24 15:40 0.56253 101.44740 1691 ft 135 kts 179°
2026-04-24 15:40 0.55312 101.44714 1694 ft 135 kts 179°
2026-04-24 15:41 0.54372 101.44688 1658 ft 136 kts 180°
2026-04-24 15:41 0.53425 101.44661 1486 ft 136 kts 180°
2026-04-24 15:41 0.52486 101.44635 1277 ft 134 kts 180°
2026-04-24 15:41 0.51550 101.44608 1066 ft 134 kts 180°
2026-04-24 15:42 0.50620 101.44582 905 ft 133 kts 181°
2026-04-24 15:42 0.49690 101.44554 747 ft 134 kts 182°
2026-04-24 15:42 0.48761 101.44515 538 ft 134 kts 181°
2026-04-24 15:42 0.47833 101.44499 322 ft 133 kts 183°
2026-04-24 15:43 0.46900 101.44474 158 ft 134 kts 181°
2026-04-24 15:43 0.46085 101.44451 134 ft 94 kts 181°
2026-04-24 15:43 0.45620 101.44438 124 ft 31 kts 182°
2026-04-24 15:43 0.45412 101.44431 124 ft 18 kts 179°
2026-04-24 15:44 0.45327 101.44422 127 ft 5 kts 168°
2026-04-24 15:44 0.45324 101.44427 127 ft 0 kts 109°
2026-04-24 15:44 0.45326 101.44429 127 ft 1 kts 75°
2026-04-24 15:44 0.45332 101.44430 126 ft 2 kts
2026-04-24 15:45 0.45377 101.44433 124 ft 9 kts 358°
2026-04-24 15:45 0.45470 101.44434 127 ft 17 kts
2026-04-24 15:45 0.45609 101.44438 126 ft 22 kts
2026-04-24 15:45 0.45771 101.44442 124 ft 25 kts
2026-04-24 15:46 0.45950 101.44445 132 ft 26 kts
2026-04-24 15:46 0.46136 101.44453 135 ft 26 kts
2026-04-24 15:46 0.46291 101.44457 139 ft 14 kts
2026-04-24 15:46 0.46356 101.44465 141 ft 8 kts 23°
2026-04-24 15:47 0.46384 101.44512 142 ft 1 kts 82°
2026-04-24 15:47 0.46386 101.44521 142 ft 3 kts 82°
2026-04-24 15:47 0.46390 101.44550 142 ft 6 kts 76°
2026-04-24 15:47 0.46418 101.44586 143 ft 7 kts 33°
2026-04-24 15:48 0.46433 101.44630 144 ft 7 kts 90°
2026-04-24 15:48 0.46432 101.44680 145 ft 0 kts 91°
2026-04-24 15:48 0.46432 101.44682 145 ft 1 kts 91°
2026-04-24 15:48 0.46432 101.44684 145 ft 0 kts 91°